星链-33594 (STARLINK-33594)

导读 | 豆包AI

STARLINK-33594是美国SpaceX公司星链(Starlink)星座中的第二代卫星,于2025年1月21日成功发射。作为全球低轨卫星互联网项目的组成部分,它服务于全球高速宽带互联网覆盖,尤其支持偏远地区通信。 该星配备增强型相控阵天线与激光星间链路,搭载氪离子推进系统,可实现自主轨道维持与避碰,设计寿命5-7年,退役后会主动离轨在大气层完全烧毁,助力构建低延迟、大容量的全球卫星通信网络。

基本信息
目录编号:
62770
目录名称:
STARLINK-33594
国际标识:
2025-015N
轨道中心:
EARTH
卫星名称:
星链-33594
卫星全名:
星链-33594 (STARLINK-33594)
卫星状态:
在轨 (已飞行463 天)
发射日期:
2025-01-21 UTC
国别 :
美国 (US)
星等 :
--
轨道信息
数据来源 国际轨道数据 AOE轨道数据
星历时间 2026-04-29T15:04:13+0800
14小时前
查看轨道信息
2026-04-23T21:00:00+0800
6天前
查看轨道信息
半长轴 6853.37km 6853.281km
偏心率 0.0001514 0.0000981
轨道倾角 53.161° 53.159°
近地点辐角 76.140° 84.675°
升交点赤经 87.068° 113.792°
平近点角 283.976° 246.677°
近地点 474.195km 474.471km
远地点 476.271km 475.817km
周期 94.106分钟 94.104分钟
每日圈数 15.301943 15.30224
详细信息
固有亮度:
5
最大亮度:
2.5
卫星平台:
Starlink V1.0
覆盖范围:
全球
运营商:
太空探索技术公司
运营商所在国:
美国
制造商(研发单位):
太空探索技术公司
制造商所在国:
美国
使用方式:
暂无
卫星简介
Starlink 计划是 SpaceX 推出的全球卫星互联网项目,通过发射低轨道卫星,为全球尤其是偏远地区提供高速、低延迟的互联网服务。自 2019 年起,Starlink 已部署数千颗卫星,旨在缩小全球数字鸿沟,推动互联网普及。该项目还为军事、航空等行业提供通信支持,带来广泛经济效益。
2D轨道图
3D轨道图
轨道高度分析图
轨道倾角分析图
轨道综合分析图
查看轨道综合分析图